| time (UTC) | temp F | wind direction | speed knots | gust knots | rain 1hr in | rain 24hr in | rain mn in | humidity % | barometer mb |
| 20260510134534 | 51 | 0 | 0.9 | 3.5 | 0.00 | 0.00 | 0.00 | 44 | 1018.7 |
| 20260510133035 | 50 | 261 | 2.6 | 5.2 | 0.00 | 0.00 | 0.00 | 45 | 1018.7 |
| 20260510131538 | 49 | 0 | 1.7 | 4.3 | 0.00 | 0.00 | 0.00 | 59 | 1018.7 |
| 20260510130038 | 48 | 238 | 0.9 | 2.6 | 0.00 | 0.00 | 0.00 | 58 | 1018.5 |
| 20260510124539 | 47 | 243 | 1.7 | 2.6 | 0.00 | 0.00 | 0.00 | 62 | 1018.3 |
| 20260510123036 | 46 | 302 | 0.9 | 3.5 | 0.00 | 0.00 | 0.00 | 64 | 1018.1 |
| 20260510121531 | 44 | 305 | 1.7 | 2.6 | 0.00 | 0.00 | 0.00 | 67 | 1018.1 |
| 20260510120038 | 43 | 0 | 0.0 | 1.7 | 0.00 | 0.00 | 0.00 | 71 | 1018.0 |
| 20260510114537 | 41 | 28 | 0.0 | 0.9 | 0.00 | 0.00 | 0.00 | 76 | 1017.7 |
| 20260510113037 | 39 | 0 | 0.0 | 0.9 | 0.00 | 0.00 | 0.00 | 79 | 1017.6 |
| 20260510111535 | 37 | 0 | 0.0 | 0.0 | 0.00 | 0.00 | 0.00 | 83 | 1017.6 |
| 20260510110042 | 35 | 0 | 0.0 | 0.0 | 0.00 | 0.00 | 0.00 | 84 | 1017.3 |
| 20260510104539 | 35 | 0 | 0.0 | 0.9 | 0.00 | 0.00 | 0.00 | 84 | 1017.2 |
| 20260510103041 | 35 | 0 | 0.0 | 0.0 | 0.00 | 0.00 | 0.00 | 84 | 1017.0 |
| 20260510101535 | 35 | 0 | 0.0 | 0.0 | 0.00 | 0.00 | 0.00 | 84 | 1016.8 |
| 20260510100038 | 35 | 0 | 0.0 | 0.0 | 0.00 | 0.00 | 0.00 | 83 | 1016.7 |
| 20260510094542 | 36 | 0 | 0.0 | 0.0 | 0.00 | 0.00 | 0.00 | 83 | 1016.3 |
| 20260510093041 | 36 | 0 | 0.0 | 0.0 | 0.00 | 0.00 | 0.00 | 82 | 1016.2 |
| 20260510091539 | 36 | 0 | 0.0 | 0.0 | 0.00 | 0.00 | 0.00 | 81 | 1016.0 |
| 20260510090042 | 36 | 0 | 0.0 | 0.0 | 0.00 | 0.00 | 0.00 | 80 | 1016.0 |
| 20260510084538 | 37 | 0 | 0.0 | 0.0 | 0.00 | 0.00 | 0.00 | 80 | 1015.7 |
| 20260510083036 | 37 | 0 | 0.0 | 0.0 | 0.00 | 0.00 | 0.00 | 77 | 1015.5 |
| 20260510081551 | 38 | 0 | 0.0 | 0.0 | 0.00 | 0.00 | 0.00 | 77 | 1015.4 |
| 20260510080143 | 38 | 0 | 0.0 | 0.0 | 0.00 | 0.00 | 0.00 | 76 | 1015.2 |
| 20260510074539 | 39 | 0 | 0.0 | 0.0 | 0.00 | 0.00 | 0.00 | 75 | 1014.8 |
| 20260510073038 | 39 | 0 | 0.0 | 0.0 | 0.00 | 0.00 | 0.00 | 74 | 1014.8 |
| 20260510071535 | 39 | 0 | 0.0 | 0.0 | 0.00 | 0.00 | 0.00 | 73 | 1014.5 |
| 20260510070040 | 40 | 0 | 0.0 | 0.0 | 0.00 | 0.00 | 0.00 | 71 | 1014.4 |
| 20260510064536 | 41 | 0 | 0.0 | 0.0 | 0.00 | 0.00 | 0.00 | 69 | 1014.4 |
| 20260510063035 | 42 | 0 | 0.0 | 0.9 | 0.00 | 0.00 | 0.00 | 66 | 1014.2 |
| 20260510061539 | 43 | 28 | 0.0 | 3.5 | 0.00 | 0.00 | 0.00 | 65 | 1014.0 |
| 20260510060037 | 43 | 51 | 0.0 | 0.9 | 0.00 | 0.00 | 0.00 | 66 | 1013.9 |
| 20260510054546 | 44 | 51 | 0.0 | 2.6 | 0.00 | 0.00 | 0.00 | 65 | 1013.9 |
| 20260510053034 | 44 | 46 | 1.7 | 4.3 | 0.00 | 0.00 | 0.00 | 64 | 1013.7 |
| 20260510051536 | 45 | 46 | 3.5 | 7.8 | 0.00 | 0.00 | 0.00 | 63 | 1013.6 |
| 20260510050051 | 45 | 60 | 2.6 | 9.6 | 0.00 | 0.00 | 0.00 | 62 | 1013.5 |
| 20260510044546 | 45 | 55 | 2.6 | 7.8 | 0.00 | 0.00 | 0.00 | 62 | 1013.2 |
| 20260510043038 | 46 | 62 | 5.2 | 12.2 | 0.00 | 0.00 | 0.00 | 61 | 1013.0 |
| 20260510041548 | 47 | 61 | 4.3 | 12.2 | 0.00 | 0.00 | 0.00 | 57 | 1012.8 |
| 20260510040039 | 49 | 12 | 5.2 | 15.6 | 0.00 | 0.00 | 0.00 | 51 | 1012.4 |
| 20260510034537 | 53 | 34 | 7.0 | 11.3 | 0.00 | 0.00 | 0.00 | 40 | 1011.8 |
| 20260510033043 | 53 | 304 | 0.0 | 2.6 | 0.00 | 0.00 | 0.00 | 40 | 1011.1 |
| 20260510031550 | 54 | 0 | 0.0 | 3.5 | 0.00 | 0.00 | 0.00 | 39 | 1010.9 |
| 20260510030038 | 55 | 349 | 0.0 | 2.6 | 0.00 | 0.00 | 0.00 | 39 | 1010.9 |
| 20260510024553 | 56 | 325 | 0.0 | 3.5 | 0.00 | 0.00 | 0.00 | 37 | 1010.7 |
| 20260510023036 | 56 | 32 | 1.7 | 8.7 | 0.00 | 0.00 | 0.00 | 37 | 1010.4 |
| 20260510021535 | 57 | 278 | 2.6 | 5.2 | 0.00 | 0.00 | 0.00 | 37 | 1010.1 |
| 20260510020032 | 57 | 322 | 4.3 | 10.4 | 0.00 | 0.00 | 0.00 | 39 | 1009.8 |
| 20260510014540 | 58 | 53 | 1.7 | 5.2 | 0.00 | 0.00 | 0.00 | 40 | 1009.4 |
| 20260510013040 | 58 | 340 | 2.6 | 7.0 | 0.00 | 0.00 | 0.00 | 39 | 1009.1 |
| 20260510011538 | 59 | 332 | 1.7 | 6.1 | 0.00 | 0.00 | 0.00 | 38 | 1008.7 |
| 20260510010038 | 60 | 360 | 1.7 | 9.6 | 0.00 | 0.00 | 0.00 | 37 | 1008.2 |
| 20260510004538 | 61 | 347 | 4.3 | 10.4 | 0.00 | 0.00 | 0.00 | 37 | 1008.0 |
| 20260510003041 | 61 | 294 | 2.6 | 9.6 | 0.00 | 0.00 | 0.00 | 37 | 1007.8 |
| 20260510001539 | 62 | 329 | 4.3 | 8.7 | 0.00 | 0.00 | 0.00 | 36 | 1007.6 |
| 20260510000041 | 63 | 63 | 3.5 | 9.6 | 0.00 | 0.00 | 0.00 | 37 | 1007.3 |
| 20260509234538 | 63 | 8 | 4.3 | 9.6 | 0.00 | 0.00 | 0.00 | 37 | 1007.1 |
| 20260509233046 | 63 | 293 | 2.6 | 11.3 | 0.00 | 0.00 | 0.00 | 37 | 1007.0 |
| 20260509231535 | 63 | 304 | 4.3 | 12.2 | 0.00 | 0.00 | 0.00 | 38 | 1006.9 |
| 20260509230035 | 64 | 316 | 5.2 | 13.9 | 0.00 | 0.00 | 0.00 | 37 | 1006.5 |
| 20260509224540 | 64 | 318 | 7.0 | 17.4 | 0.00 | 0.00 | 0.00 | 36 | 1006.4 |
| 20260509223045 | 64 | 326 | 4.3 | 16.5 | 0.00 | 0.00 | 0.00 | 36 | 1006.2 |
| 20260509221542 | 65 | 283 | 4.3 | 13.9 | 0.00 | 0.00 | 0.00 | 37 | 1006.0 |
| 20260509220040 | 64 | 358 | 7.0 | 14.8 | 0.00 | 0.00 | 0.00 | 38 | 1005.8 |
| 20260509214537 | 65 | 7 | 7.0 | 15.6 | 0.00 | 0.00 | 0.00 | 37 | 1005.5 |
| 20260509213036 | 65 | 320 | 7.0 | 13.9 | 0.00 | 0.00 | 0.00 | 37 | 1005.3 |
| 20260509211540 | 65 | 288 | 7.8 | 15.6 | 0.00 | 0.00 | 0.00 | 36 | 1005.0 |
| 20260509210050 | 66 | 290 | 4.3 | 20.9 | 0.00 | 0.00 | 0.00 | 37 | 1004.9 |
| 20260509204537 | 66 | 321 | 5.2 | 19.1 | 0.00 | 0.00 | 0.00 | 37 | 1004.4 |
| 20260509203036 | 66 | 348 | 7.8 | 17.4 | 0.00 | 0.00 | 0.00 | 40 | 1004.6 |
| 20260509201535 | 66 | 343 | 7.8 | 17.4 | 0.00 | 0.00 | 0.00 | 40 | 1004.3 |
| 20260509200043 | 67 | 339 | 6.1 | 19.1 | 0.00 | 0.00 | 0.00 | 36 | 1004.0 |
| 20260509194539 | 66 | 249 | 7.0 | 15.6 | 0.00 | 0.00 | 0.00 | 36 | 1003.7 |
| 20260509193037 | 67 | 309 | 6.1 | 13.0 | 0.00 | 0.00 | 0.00 | 38 | 1003.4 |
| 20260509191537 | 68 | 293 | 8.7 | 16.5 | 0.00 | 0.00 | 0.00 | 35 | 1003.4 |
| 20260509190040 | 68 | 295 | 6.1 | 15.6 | 0.00 | 0.00 | 0.00 | 37 | 1003.3 |
| 20260509184536 | 68 | 245 | 7.0 | 18.2 | 0.00 | 0.00 | 0.00 | 37 | 1003.1 |
| 20260509183039 | 67 | 273 | 6.1 | 15.6 | 0.00 | 0.00 | 0.00 | 36 | 1003.1 |
| 20260509181534 | 67 | 267 | 10.4 | 20.0 | 0.00 | 0.00 | 0.00 | 36 | 1003.1 |
| 20260509180035 | 67 | 287 | 8.7 | 21.7 | 0.00 | 0.00 | 0.00 | 35 | 1003.1 |
| 20260509174536 | 68 | 243 | 6.1 | 18.2 | 0.00 | 0.00 | 0.00 | 36 | 1003.2 |
| 20260509173103 | 66 | 277 | 7.0 | 13.9 | 0.00 | 0.00 | 0.00 | 35 | 1003.2 |
| 20260509171539 | 65 | 233 | 7.0 | 16.5 | 0.00 | 0.00 | 0.00 | 36 | 1003.3 |
| 20260509170049 | 64 | 250 | 7.0 | 13.0 | 0.00 | 0.00 | 0.00 | 36 | 1003.3 |
| 20260509164537 | 63 | 256 | 4.3 | 11.3 | 0.00 | 0.00 | 0.00 | 36 | 1003.4 |
| 20260509163041 | 63 | 221 | 2.6 | 7.8 | 0.00 | 0.00 | 0.00 | 36 | 1003.4 |
| 20260509161542 | 63 | 314 | 4.3 | 12.2 | 0.00 | 0.00 | 0.00 | 35 | 1003.7 |
| 20260509160041 | 63 | 290 | 2.6 | 7.8 | 0.00 | 0.00 | 0.00 | 34 | 1003.8 |
| 20260509154538 | 62 | 276 | 2.6 | 8.7 | 0.00 | 0.00 | 0.00 | 37 | 1003.7 |
| 20260509153036 | 62 | 354 | 4.3 | 10.4 | 0.00 | 0.00 | 0.00 | 37 | 1003.6 |
| 20260509151543 | 62 | 300 | 3.5 | 9.6 | 0.00 | 0.00 | 0.00 | 42 | 1003.4 |
| 20260509150043 | 61 | 274 | 2.6 | 7.8 | 0.00 | 0.00 | 0.00 | 43 | 1003.1 |
| 20260509144539 | 61 | 296 | 1.7 | 7.8 | 0.00 | 0.00 | 0.00 | 44 | 1002.8 |
| 20260509143047 | 61 | 290 | 3.5 | 5.2 | 0.00 | 0.00 | 0.00 | 44 | 1002.7 |
| 20260509141534 | 61 | 231 | 4.3 | 11.3 | 0.00 | 0.00 | 0.00 | 43 | 1002.8 |
| 20260509140043 | 61 | 257 | 4.3 | 8.7 | 0.00 | 0.00 | 0.00 | 46 | 1002.6 |